Location: Cranbrook Institute of Science
(42.5830°N, 83.2450°W)
Time: 16:34:04
(UTC-04:00)

Daily predictions for brighter satellites

Satellite Brightness Start Highest point End
(mag) Time Altitude Azimuth Time Altitude Azimuth Time Altitude Azimuth
Lacrosse 4 Rocket 4.3 20:22:57 10° WNW 20:25:02 14° NW 20:27:06 10° NNW
Cosmos 1818 4.1 20:19:39 10° NW 20:25:03 65° WSW 20:30:24 10° SSE
Cosmos 1470 3.7 20:24:19 10° SSE 20:27:43 28° E 20:31:08 10° NNE
Cosmos 2297 3.7 20:24:31 10° SSW 20:30:13 79° ESE 20:35:59 10° NNE
Cosmos 2123 Rocket 4.4 20:25:23 10° N 20:31:42 74° W 20:37:55 10° S
Cosmos 1408 Rocket 3.9 20:27:58 10° N 20:32:18 46° ENE 20:36:36 10° SSE
SWAS 4.4 20:29:48 10° SSW 20:34:03 67° ESE 20:38:21 10° NNE
H-2A R/B 2.9 20:32:43 10° SSE 20:36:34 59° ENE 20:40:29 10° N
Cosmos 2082 Rocket 2.3 20:33:37 10° NNW 20:39:20 88° WSW 20:44:59 10° SSE
Spot 2 Rocket 3.6 20:35:05 10° SSE 20:40:07 63° ENE 20:45:12 10° N
GPS 2-05 Rocket1 4.3 20:39:00 10° WSW 20:42:00 26° S 20:44:44 12° SE
Resurs 1-3 3.7 20:38:20 10° SSE 20:42:38 58° ENE 20:46:58 10° N
Cosmos 1076 Rocket 3.5 20:38:59 10° N 20:43:15 88° E 20:47:29 10° S
Cosmos 1184 Rocket 4.1 20:43:53 10° NNE 20:46:40 23° ENE 20:48:38 14° ESE
SJ-6B 3.9 20:44:12 10° S 20:47:46 45° W 20:51:25 10° NNW
Cosmos 1340 Rocket 3.1 20:44:32 10° N 20:48:25 45° ENE 20:52:13 10° SSE
Cosmos 1802 Rocket 4.4 20:43:21 10° SSE 20:49:00 40° E 20:54:43 10° NNE
Helios 1A 3.5 20:46:22 10° SE 20:50:14 38° ENE 20:54:08 10° N
CZ-4B DEB 4.1 20:49:48 16° ESE 20:51:13 22° ENE 20:53:40 10° NNE
Meteor 1-4 Rocket 3.3 20:49:16 10° SSW 20:52:41 54° WNW 20:56:07 10° N
Cosmos 389 Rocket 4.0 20:52:52 17° ESE 20:53:28 17° E 20:55:51 10° NE
SeaSat 1 2.5 20:52:02 10° SSE 20:56:58 85° WSW 21:01:56 10° NNW
MINOTAUR R/B 4.5 20:55:03 10° S 20:57:52 52° ESE 21:00:41 10° NNE
Envisat 3.6 20:54:14 12° SE 20:58:31 36° ENE 21:03:09 10° N
Cosmos 1356 Rocket 4.3 20:54:58 10° NNE 20:58:34 29° ENE 21:00:45 18° ESE
Cosmos 1674 2.7 20:55:28 10° N 20:59:17 86° W 21:03:06 10° S
Cosmos 1271 Rocket 2.7 20:56:50 10° S 21:00:50 75° E 21:04:51 10° NNE
ISS -3.1 20:59:26 10° WSW 21:02:38 53° NNW 21:05:51 10° NE
Cosmos 1459 Rocket 4.0 20:56:33 10° S 21:02:39 62° E 21:08:43 10° NNE
Cosmos 1867 4.5 20:57:35 10° SW 21:02:53 52° NW 21:08:15 10° NNE
ERS-1 Rocket 4.2 21:03:09 18° E 21:05:20 23° ENE 21:09:16 10° NNE
SL-14 R/B 4.0 21:02:30 10° NNE 21:06:01 32° ENE 21:07:46 22° ESE
Cosmos 2061 Rocket 4.0 21:03:33 10° S 21:09:52 66° E 21:16:15 10° NNE
Geosat 4.2 21:05:02 10° NE 21:09:53 46° ESE 21:14:42 10° S
Cosmos 2173 Rocket 3.9 21:07:14 10° S 21:13:24 74° E 21:19:41 10° N
Cosmos-2242 3.1 21:10:25 10° SSW 21:14:39 76° W 21:18:56 10° N
Timation 2 Rocket 4.4 21:08:41 10° NNW 21:14:51 60° WSW 21:20:45 10° S
Cosmos 1626 4.2 21:14:08 10° NE 21:15:34 14° ENE 21:15:34 14° ENE
Cosmos 1328 3.9 21:13:51 10° N 21:17:44 51° E 21:19:50 24° SE
Cosmos 2369 Rocket 2.6 21:23:31 10° S 21:28:38 37° ESE 21:33:46 10° NE
H-2A R/B 4.0 21:28:33 13° ENE 21:28:48 13° ENE 21:31:03 10° NNE
Cosmos 2221 3.7 21:33:23 26° ENE 21:33:23 26° ENE 21:36:14 10° NNE
Cosmos 2058 3.3 21:28:49 10° N 21:32:45 40° ENE 21:33:13 38° E
SJ-11-01 4.2 21:30:10 24° SSE 21:33:00 68° ENE 21:37:42 10° N
Lacrosse 5 4.2 21:29:55 10° WNW 21:33:37 20° NNW 21:37:18 10° NNE
Cosmos 1703 4.4 21:32:02 10° NNE 21:34:51 27° ENE 21:34:51 27° ENE
GP-B 4.0 21:31:39 10° SSW 21:35:57 50° W 21:40:17 10° NNW
Cosmos 1833 Rocket 4.3 21:33:27 10° NW 21:38:23 32° WSW 21:43:17 10° SSW
Meteor 1-29 3.0 21:37:49 10° N 21:41:19 79° WNW 21:44:48 10° SSW
SPOT 5 4.1 21:40:46 28° ENE 21:41:21 28° ENE 21:45:48 10° N
Cosmos 1939 Rocket 2.8 21:40:21 37° SSE 21:41:55 78° ENE 21:46:05 10° N
Lacrosse 5 rocket 3.1 21:41:17 10° WNW 21:44:24 23° SW 21:46:14 16° SSW
CZ-3B DEB 4.0 21:38:16 10° W 21:45:09 27° NNW 21:48:56 10° NNE
Cosmos 1943 Rocket 4.0 21:48:52 15° NE 21:48:52 15° NE 21:49:57 10° NE
Cosmos 2016 Rocket 3.9 21:39:47 10° S 21:46:00 86° W 21:52:10 10° N
ATLAS 5 CENTAUR R/B 3.5 21:43:31 10° WSW 21:47:51 34° NW 21:52:35 10° NNE
USA 186 3.7 21:47:36 16° WSW 21:48:06 17° W 21:49:39 10° NW
Resurs 01 Rocket 3.9 21:45:06 10° SSW 21:48:39 24° W 21:52:14 10° NW
Cosmos 1743 Rocket 4.4 21:47:41 10° NNW 21:51:59 49° W 21:55:49 13° SSW
Cosmos 1500 Rocket 3.8 21:47:57 10° NNW 21:52:15 68° W 21:54:27 28° S
USA 215 3.5 21:47:06 10° ENE 21:53:15 42° SE 21:59:22 10° SSW
Helios 1B rocket 3.4 21:50:48 10° N 21:54:46 47° WNW 21:58:43 10° SW
Cosmos 1805 Rocket 4.4 21:52:15 10° N 21:55:43 36° NE 21:55:43 36° NE
Cosmos 1725 Rocket 3.9 21:50:57 10° S 21:57:10 81° E 22:03:23 10° N
Cosmos 2151 3.0 21:55:44 10° N 22:00:00 77° W 22:00:57 52° S
Cosmos 2251 Rocket 4.1 21:55:45 10° NNW 22:00:57 56° WSW 22:04:02 24° S
CZ-4C R/B 2.0 21:57:14 10° SSW 22:02:23 66° ESE 22:08:15 10° NE
MetOp-A 4.1 22:07:06 55° E 22:07:37 58° ENE 22:12:53 10° N
YAOGAN 6 3.1 22:12:14 57° NNW 22:12:14 57° NNW 22:15:17 10° NNW
SPOT 1/Viking Rocket 4.4 22:13:12 34° NE 22:13:12 34° NE 22:17:18 10° N
Gblst 52 Del rocket 4.2 22:09:17 10° WSW 22:15:13 80° NNW 22:17:41 35° NE
ARGOS 3.4 22:17:29 50° ENE 22:17:29 50° ENE 22:22:26 10° N
Tsikada Rocket 4.2 22:16:44 10° NNW 22:22:55 69° W 22:25:55 32° SSW
USA 267 4.2 22:24:10 29° ENE 22:26:25 37° NNE 22:32:19 10° NW
ISS -0.9 22:37:14 10° WNW 22:38:41 17° NNW 22:38:41 17° NNW
ERS-1 Rocket 3.8 22:43:09 42° WSW 22:43:49 44° W 22:48:40 10° NNW
Cosmos 1626 4.4 22:48:23 10° NNW 22:50:16 24° NW 22:50:16 24° NW
USA 245 4.4 22:55:16 75° W 22:55:16 75° W 23:01:36 10° NNW
MOS 1-B Rocket 4.3 22:54:58 75° ESE 22:55:32 80° ENE 23:02:17 10° NNW
Cosmos 2233 Rocket 4.5 22:56:37 39° SW 22:58:36 55° WNW 23:04:37 10° N
Cosmos 2297 Rocket 4.5 22:59:16 10° NNE 23:01:13 13° NE 23:01:13 13° NE
H-2A R/B 3.0 23:09:11 45° N 23:09:11 45° N 23:12:44 10° NNW
Cosmos 2369 Rocket 3.7 23:07:36 10° WSW 23:12:40 34° NW 23:17:45 10° N
Terra 3.8 23:18:31 24° N 23:18:31 24° N 23:20:26 10° N
ATLAS 3B R/B 4.2 23:20:37 26° NE 23:20:37 26° NE 23:23:30 10° NE
Lacrosse 5 4.2 23:15:12 10° NNW 23:18:20 16° N 23:19:04 16° NNE
SPOT 5 4.3 23:20:01 38° WNW 23:20:01 38° WNW 23:24:12 10° NNW
Cosmos 1943 Rocket 3.4 23:30:17 38° NNW 23:30:17 38° NNW 23:34:15 10° NNE
Cosmos 2227 Rocket 4.1 23:24:34 10° N 23:27:14 20° NNE 23:27:14 20° NNE
USA 215 3.6 23:29:58 10° NE 23:36:24 61° NW 23:42:47 10° WSW
CZ-4C R/B 4.2 23:46:53 10° W 23:51:29 26° NW 23:56:38 10° NNE
